Location: Stoke Bliss
(52.2667°N, 2.5167°W)
Time: 20:49:57
(UTC+00:00)

CSL-04 Rocket - Pass Details

Date: 03 March 2021
Orbit: 805 x 861 km, 98.9° (Epoch: 15 April)

Event Time Altitude Azimuth Distance (km) Brightness Sun altitude
Rises 18:23:46 0° 142° (SE) 3,427 6.5 -5.4°
Reaches altitude 10° 18:26:13 10° 137° (SE) 2,491 5.8 -5.8°
Maximum altitude 18:31:30 48° 65° (ENE) 1,113 4.0 -6.6°
Drops below altitude 10° 18:36:45 10° 353° (N) 2,483 6.2 -7.4°
Sets 18:39:11 0° 348° (NNW) 3,414 7.0 -7.8°
